Location: Unspecified
(0.0000°N, 0.0000°E)
Time: 04:54:08
(UTC+00:00)

ISS - Pass Details

Date: 10 March 2019
Orbit: 411 x 421 km, 51.6° (Epoch: 21 October)

Event Time Altitude Azimuth Distance (km) Brightness Sun altitude
Rises 09:37:09 0° 314° (NW) 2,366 -0.2 51.5°
Reaches altitude 10° 09:39:18 10° 308° (NW) 1,508 -1.1 52.0°
Maximum altitude 09:42:33 43° 235° (SW) 608 -2.7 52.8°
Drops below altitude 10° 09:45:50 10° 161° (SSE) 1,527 -0.6 53.7°
Sets 09:48:01 0° 154° (SSE) 2,399 0.3 54.2°
